Weather History for KFHU - September, 2012

Change the Weather History Date:

Friday, September 14, 2012

  Actual Average Record
Temperature  
Mean Temperature 66 °F -  
Max Temperature 73 °F 85 °F 95 °F (2000)
Min Temperature 59 °F 65 °F 53 °F (1989)
Cooling Degree Days 1    
Growing Degree Days 16 (Base 50)    
Moisture  
Dew Point 47 °F    
Average Humidity 53    
Maximum Humidity 64    
Minimum Humidity 38    
Precipitation  
Precipitation 0.00 in - - ()
Sea Level Pressure  
Sea Level Pressure 30.12 in    
Wind  
Wind Speed 12 mph (ESE)    
Max Wind Speed 17 mph    
Max Gust Speed 24 mph    
Visibility 10 miles    
Events      
Averages and records for this station are not official NWS values.
T = Trace of Precipitation, MM = Missing Value Source: NWS Daily Summary

Daily Weather History Graph

Daily Weather History Graph

Search for Another Location

Airport or City:

Trip Planner

Search our weather history database for the weather conditions in past years. The results will help you decide how hot, cold, wet, or windy it might be!

Date:

Astronomy

Sep. 14, 2012 Rise Set
Actual Time 6:05 AM MST 6:27 PM MST
Civil Twilight 5:40 AM MST 6:52 PM MST
Nautical Twilight 5:12 AM MST 7:20 PM MST
Astronomical Twilight 4:43 AM MST 7:49 PM MST
Moon 4:36 AM MST (9/14) 5:25 PM MST (9/14)
Length of Visible Light 13h 11m
Length of Day
12h 22m
Waning Crescent, 2% of the Moon is Illuminated
Sep 14
Waning Crescent
Sep 15
New
Sep 22
First Quarter
Sep 29
Full
Oct 8
Last Quarter

Hourly Weather History & Observations

Time (MST) Temp. Dew Point Humidity Pressure Visibility Wind Dir Wind Speed Gust Speed Precip Events Conditions
12:56 AM 64.0 °F 48.9 °F 58% 30.12 in - SE 12.7 mph - 0.00 in   Partly Cloudy
1:56 AM 63.0 °F 48.9 °F 60% 30.11 in - SSE 12.7 mph - N/A   Mostly Cloudy
2:56 AM 62.1 °F 48.9 °F 62% 30.11 in - SSE 9.2 mph - N/A   Partly Cloudy
3:56 AM 61.0 °F 48.0 °F 62% 30.11 in - SSE 11.5 mph - N/A   Partly Cloudy
4:56 AM 61.0 °F 46.9 °F 60% 30.12 in - SE 11.5 mph - N/A   Clear
5:55 AM 59.0 °F 46.4 °F 63% 30.15 in 10.0 mi East 5.8 mph - N/A   Partly Cloudy
5:56 AM 59.0 °F 46.9 °F 64% 30.15 in - East 5.8 mph - N/A   Clear
6:55 AM 60.8 °F 46.4 °F 59% 30.14 in 10.0 mi East 8.1 mph - N/A   Partly Cloudy
7:55 AM 64.4 °F 48.2 °F 56% 30.15 in 10.0 mi East 10.4 mph - N/A   Scattered Clouds
8:55 AM 64.4 °F 46.4 °F 52% 30.16 in 10.0 mi SSE 17.3 mph 24.2 mph N/A   Mostly Cloudy
9:55 AM 66.2 °F 48.2 °F 52% 30.16 in 10.0 mi ESE 15.0 mph 19.6 mph N/A   Mostly Cloudy
10:55 AM 69.8 °F 48.2 °F 46% 30.15 in 10.0 mi SE 15.0 mph - N/A   Scattered Clouds
11:55 AM 69.8 °F 48.2 °F 46% 30.14 in 10.0 mi East 13.8 mph 21.9 mph N/A   Mostly Cloudy
12:55 PM 71.6 °F 46.4 °F 41% 30.12 in 10.0 mi SE 16.1 mph 20.7 mph N/A   Mostly Cloudy
1:55 PM 73.4 °F 46.4 °F 38% 30.09 in 10.0 mi East 11.5 mph - N/A   Scattered Clouds
2:55 PM 73.4 °F 46.4 °F 38% 30.07 in 10.0 mi ESE 13.8 mph 18.4 mph N/A   Scattered Clouds
3:55 PM 73.4 °F 46.4 °F 38% 30.07 in 10.0 mi East 12.7 mph - N/A   Scattered Clouds
4:55 PM 71.6 °F 46.4 °F 41% 30.06 in 10.0 mi East 10.4 mph - N/A   Scattered Clouds
5:55 PM 71.6 °F 46.4 °F 41% 30.08 in 10.0 mi East 16.1 mph - N/A   Partly Cloudy
6:55 PM 66.2 °F 48.2 °F 52% 30.11 in 10.0 mi ESE 11.5 mph - N/A   Partly Cloudy
7:55 PM 64.4 °F 48.2 °F 56% 30.13 in 10.0 mi SE 12.7 mph - N/A   Partly Cloudy
8:55 PM 62.6 °F 48.2 °F 59% 30.15 in 10.0 mi SE 17.3 mph 23.0 mph N/A   Clear
9:55 PM 62.6 °F 46.4 °F 55% 30.15 in 10.0 mi SE 17.3 mph - N/A   Clear
10:56 PM 62.1 °F 46.9 °F 58% 30.15 in - SSE 13.8 mph - N/A   Clear
11:56 PM 61.0 °F 46.9 °F 60% 30.15 in - SE 12.7 mph - N/A   Clear